GW3407 Weather Reports


time (UTC)temp
C
wind
direction
speed
KPH
gust
KPH
rain 1hr
cm
rain 24hr
cm
rain mn
cm
humidity
%
barometer
mb
20260906124139 20 0 0.0 4.8 0.00 0.00 0.00 99 1014.3
20260906123638 20 0 3.2 6.4 0.00 0.00 0.00 99 1014.1
20260906123134 20 53 0.0 4.8 0.00 0.00 0.00 99 1014.5
20260906122632 20 270 0.0 4.8 0.00 0.00 0.00 99 1014.1
20260906122128 20 254 3.2 3.2 0.00 0.00 0.00 99 1014.2
20260906121624 20 216 3.2 4.8 0.00 0.00 0.00 99 1014.3
20260906121120 20 246 1.6 4.8 0.00 0.00 0.00 99 1014.2
20260906120616 20 248 4.8 4.8 0.00 0.00 0.00 99 1014.1
20260906120113 20 330 0.0 4.8 0.00 0.00 0.00 99 1014.1
20260906115612 20 315 3.2 8.0 0.00 0.00 0.00 99 1013.8
20260906115108 20 350 3.2 4.8 0.00 0.00 0.00 99 1013.7
20260906114601 20 270 0.0 3.2 0.00 0.00 0.00 99 1013.8
20260906114056 20 297 1.6 6.4 0.00 0.00 0.00 99 1013.7
20260906113556 20 276 0.0 4.8 0.00 0.00 0.00 99 1013.6
20260906113051 20 355 1.6 8.0 0.00 0.00 0.00 99 1013.6
20260906112546 21 278 1.6 8.0 0.00 0.00 0.00 99 1013.2
20260906112042 21 320 0.0 3.2 0.00 0.00 0.00 99 1013.4
20260906111542 21 52 4.8 6.4 0.00 0.00 0.00 99 1013.1
20260906111037 21 257 1.6 9.7 0.00 0.00 0.00 99 1013.2
20260906110537 21 289 0.0 4.8 0.00 0.00 0.00 99 1013.0
20260906110036 21 287 0.0 4.8 0.00 0.00 0.00 99 1012.8
20260906105531 21 289 3.2 4.8 0.00 0.00 0.00 99 1012.8
20260906105027 21 277 1.6 3.2 0.00 0.00 0.00 99 1012.7
20260906104526 21 325 1.6 3.2 0.00 0.00 0.00 99 1012.7
20260906104020 21 8 0.0 4.8 0.00 0.00 0.00 99 1012.9
20260906103519 21 48 3.2 8.0 0.00 0.00 0.00 99 1012.7
20260906103014 21 348 0.0 3.2 0.00 0.00 0.00 99 1012.6
20260906102509 21 270 0.0 3.2 0.00 0.00 0.00 99 1012.6
20260906102008 21 243 1.6 4.8 0.00 0.00 0.00 99 1012.5
20260906101503 21 120 3.2 4.8 0.00 0.00 0.00 99 1012.5
20260906100958 21 270 3.2 4.8 0.00 0.00 0.00 99 1012.5
20260906100453 21 16 0.0 4.8 0.00 0.00 0.00 99 1012.6
20260906095948 21 0 0.0 4.8 0.00 0.00 0.00 99 1012.5
20260906095443 21 180 0.0 3.2 0.00 0.00 0.00 99 1012.5
20260906094938 21 81 0.0 3.2 0.00 0.00 0.00 99 1012.4
20260906094426 21 4 0.0 3.2 0.00 0.00 0.00 99 1012.5
20260906093923 21 90 0.0 4.8 0.00 0.00 0.00 99 1012.4
20260906093419 21 3 4.8 4.8 0.00 0.00 0.00 99 1012.2
20260906092918 21 270 0.0 3.2 0.00 0.00 0.00 99 1012.6
20260906092413 21 334 0.0 3.2 0.00 0.00 0.00 99 1012.3
20260906091909 21 263 0.0 4.8 0.00 0.00 0.00 99 1012.5
20260906091404 21 353 0.0 4.8 0.00 0.00 0.00 99 1012.5
20260906090900 21 337 0.0 4.8 0.00 0.00 0.00 99 1012.5
20260906090359 20 270 0.0 3.2 0.00 0.00 0.00 99 1012.4
20260906085854 21 336 4.8 6.4 0.00 0.00 0.00 99 1012.2
20260906085347 21 254 0.0 4.8 0.00 0.00 0.00 99 1012.4
20260906084842 21 249 0.0 1.6 0.00 0.00 0.00 99 1012.4
20260906084336 20 286 0.0 3.2 0.00 0.00 0.00 99 1012.6
20260906083825 20 352 0.0 4.8 0.00 0.00 0.00 99 1012.4
20260906083321 20 247 4.8 6.4 0.00 0.00 0.00 99 1012.4
20260906082815 20 270 1.6 3.2 0.00 0.00 0.00 99 1012.5
20260906082310 20 264 0.0 3.2 0.00 0.00 0.00 99 1012.2
20260906081806 20 301 3.2 3.2 0.00 0.00 0.00 99 1012.3
20260906081302 20 270 3.2 3.2 0.00 0.00 0.00 99 1012.5
20260906080757 20 0 0.0 3.2 0.00 0.00 0.00 99 1012.5
20260906080253 20 286 0.0 3.2 0.00 0.00 0.00 99 1012.4
20260906075747 20 289 1.6 3.2 0.00 0.00 0.00 99 1012.4
20260906075241 20 246 1.6 3.2 0.00 0.00 0.00 99 1012.2
20260906074737 20 213 3.2 3.2 0.00 0.00 0.00 99 1012.4
20260906074236 20 270 0.0 3.2 0.00 0.00 0.00 99 1012.5
20260906073736 20 270 1.6 3.2 0.00 0.00 0.00 99 1012.4
20260906073231 20 261 0.0 1.6 0.00 0.00 0.00 99 1012.5
20260906072727 20 265 0.0 3.2 0.00 0.00 0.00 99 1012.4
20260906072222 20 255 0.0 3.2 0.00 0.00 0.00 99 1012.3
20260906071718 20 180 0.0 3.2 0.00 0.00 0.00 99 1012.3
20260906071218 20 270 0.0 3.2 0.00 0.00 0.00 99 1012.2
20260906070715 20 311 0.0 4.8 0.00 0.00 0.00 99 1012.4
20260906070210 20 221 0.0 3.2 0.00 0.00 0.00 99 1012.3
20260906065710 20 352 0.0 4.8 0.00 0.00 0.00 99 1012.4
20260906065205 20 90 0.0 4.8 0.00 0.00 0.00 99 1012.4
20260906064701 20 90 1.6 4.8 0.00 0.00 0.00 99 1012.5
20260906064155 20 206 0.0 1.6 0.00 0.00 0.00 99 1012.4
20260906063651 20 165 1.6 3.2 0.00 0.00 0.00 99 1012.3
20260906063146 20 99 0.0 3.2 0.00 0.00 0.00 99 1012.3
20260906062642 20 283 0.0 3.2 0.00 0.00 0.00 99 1012.4
20260906062140 20 262 0.0 4.8 0.00 0.00 0.00 99 1012.3
20260906061637 20 291 0.0 3.2 0.00 0.00 0.00 99 1012.5
20260906061137 20 262 0.0 1.6 0.00 0.00 0.00 99 1012.3
20260906060634 20 258 0.0 3.2 0.00 0.00 0.00 99 1012.6
20260906060131 20 286 0.0 1.6 0.00 0.00 0.00 99 1012.1
20260906055626 21 120 0.0 1.6 0.00 0.00 0.00 99 1012.3
20260906055121 20 90 0.0 3.2 0.00 0.00 0.00 99 1012.3
20260906054616 20 120 0.0 3.2 0.00 0.00 0.00 99 1012.3
20260906054111 21 307 0.0 3.2 0.00 0.00 0.00 99 1012.5
20260906053608 21 165 0.0 1.6 0.00 0.00 0.00 99 1012.5
20260906053103 21 203 0.0 3.2 0.00 0.00 0.00 99 1012.4
20260906052558 21 173 0.0 3.2 0.00 0.00 0.00 99 1012.4
20260906052055 21 263 0.0 1.6 0.00 0.00 0.00 99 1012.7
20260906051550 21 249 0.0 1.6 0.00 0.00 0.00 99 1012.4
20260906051046 21 99 0.0 3.2 0.00 0.00 0.00 99 1012.4
20260906050541 21 145 0.0 3.2 0.00 0.00 0.00 99 1012.4
20260906050036 21 180 0.0 1.6 0.00 0.00 0.00 99 1012.2
20260906045534 21 188 0.0 1.6 0.00 0.00 0.00 99 1012.0
20260906045030 21 251 0.0 1.6 0.00 0.00 0.00 99 1012.2
20260906044525 21 203 0.0 3.2 0.00 0.00 0.00 99 1012.0
20260906044021 21 198 0.0 3.2 0.00 0.00 0.00 99 1012.1
20260906043516 21 132 0.0 3.2 0.00 0.00 0.00 99 1012.0
20260906043013 21 291 1.6 4.8 0.00 0.00 0.00 99 1011.8
20260906042511 21 203 3.2 3.2 0.00 0.00 0.00 99 1012.0
20260906042011 21 192 1.6 1.6 0.00 0.00 0.00 99 1012.2
20260906041507 21 270 0.0 3.2 0.00 0.00 0.00 99 1011.8
20260906041007 21 162 0.0 4.8 0.00 0.00 0.00 99 1011.8
20260906040502 21 203 0.0 1.6 0.00 0.00 0.00 99 1012.1
20260906035957 21 166 1.6 3.2 0.00 1.04 1.04 99 1012.1
20260906035453 21 154 0.0 3.2 0.00 1.04 1.04 99 1012.1
20260906034948 21 180 0.0 3.2 0.00 1.04 1.04 99 1012.0
20260906034442 21 240 3.2 3.2 0.00 1.04 1.04 99 1012.0
20260906033932 21 184 0.0 4.8 0.00 1.04 1.04 99 1012.2
20260906033427 21 247 0.0 3.2 0.00 1.04 1.04 99 1012.1
20260906032922 21 114 3.2 6.4 0.00 1.04 1.04 99 1012.3
20260906032419 21 109 0.0 3.2 0.00 1.04 1.04 99 1011.9
20260906031913 21 215 0.0 3.2 0.00 1.04 1.04 99 1012.3
20260906031408 21 174 0.0 3.2 0.00 1.04 1.04 99 1011.9
20260906030903 21 123 0.0 3.2 0.00 1.04 1.04 99 1012.3
20260906030358 21 165 0.0 3.2 0.00 1.04 1.04 99 1012.1
20260906025852 22 214 0.0 3.2 0.00 1.04 1.04 99 1012.2
20260906025346 22 172 0.0 3.2 0.00 1.04 1.04 99 1012.4
20260906024845 22 203 0.0 3.2 0.00 1.04 1.04 99 1012.3
20260906024344 21 143 0.0 3.2 0.00 1.04 1.04 99 1012.5
20260906023840 21 168 0.0 3.2 0.00 1.04 1.04 99 1012.2
20260906023336 22 203 0.0 1.6 0.00 1.04 1.04 99 1012.4
20260906022831 22 102 0.0 4.8 0.00 1.04 1.04 99 1012.4
20260906022326 22 180 0.0 4.8 0.00 1.04 1.04 99 1012.4
20260906021822 22 66 0.0 3.2 0.00 1.04 1.04 99 1012.3
20260906021321 22 180 0.0 1.6 0.00 1.04 1.04 99 1012.5
20260906020821 22 71 0.0 1.6 0.00 1.04 1.04 99 1012.2
20260906020321 22 180 0.0 4.8 0.00 1.04 1.04 99 1012.3
20260906015816 22 278 0.0 4.8 0.00 1.04 1.04 99 1012.2
20260906015315 22 103 1.6 3.2 0.00 1.04 1.04 99 1012.1
20260906014814 22 114 0.0 3.2 0.00 1.04 1.04 99 1012.0
20260906014310 22 279 0.0 4.8 0.00 1.04 1.04 99 1012.0
20260906013806 22 220 0.0 3.2 0.00 1.04 1.04 99 1011.9
20260906013301 22 63 0.0 1.6 0.00 1.04 1.04 99 1011.8
20260906012756 22 165 0.0 1.6 0.00 1.04 1.04 99 1011.9
20260906012252 22 109 0.0 1.6 0.00 1.04 1.04 99 1011.8
20260906011747 22 198 0.0 1.6 0.00 1.04 1.04 99 1011.5
20260906011246 22 175 0.0 1.6 0.00 1.04 1.04 99 1011.7
20260906010741 22 114 0.0 3.2 0.00 1.04 1.04 99 1011.3
20260906010238 22 203 0.0 3.2 0.00 1.04 1.04 99 1011.5
20260906005733 22 228 0.0 4.8 0.00 1.04 1.04 99 1011.4
20260906005231 22 151 0.0 3.2 0.00 1.04 1.04 99 1011.2
20260906004726 23 195 0.0 3.2 0.00 1.04 1.04 99 1011.2
20260906004221 23 172 0.0 1.6 0.00 1.04 1.04 99 1011.3
20260906003715 23 111 0.0 1.6 0.00 1.04 1.04 99 1011.5
20260906003211 23 251 0.0 1.6 0.00 1.04 1.04 99 1011.4
20260906002711 23 120 1.6 3.2 0.00 1.04 1.04 99 1011.2
20260906002206 23 220 0.0 3.2 0.00 1.04 1.04 99 1011.4
20260906001701 23 180 1.6 3.2 0.00 1.04 1.04 98 1011.4
20260906001201 23 114 0.0 3.2 0.00 1.04 1.04 98 1011.3
20260906000657 23 121 0.0 3.2 0.00 1.04 1.04 98 1011.3
20260906000152 24 188 0.0 3.2 0.00 1.04 1.04 97 1011.6
20260905235651 24 114 0.0 1.6 0.00 1.04 1.04 96 1011.4
20260905235146 24 270 0.0 3.2 0.00 1.04 1.04 96 1011.4
20260905234641 25 160 0.0 1.6 0.00 1.04 1.04 95 1011.6
20260905234137 25 187 0.0 1.6 0.00 1.04 1.04 95 1011.7
20260905233632 25 102 0.0 3.2 0.00 1.04 1.04 94 1011.7
20260905233131 25 90 0.0 1.6 0.00 1.04 1.04 94 1011.5
20260905232627 26 254 1.6 3.2 0.00 1.04 1.04 93 1011.4
20260905232118 26 293 3.2 3.2 0.00 1.04 1.04 91 1011.3
20260905231618 26 261 0.0 1.6 0.00 1.04 1.04 90 1011.4
20260905231113 26 198 0.0 3.2 0.00 1.04 1.04 89 1011.5
20260905230609 26 297 0.0 3.2 0.00 1.04 1.04 89 1011.6
20260905230107 27 246 1.6 3.2 0.00 1.04 1.04 88 1011.5
20260905225601 27 286 0.0 4.8 0.00 1.04 1.04 86 1011.6
20260905225055 27 275 3.2 4.8 0.00 1.04 1.04 83 1011.6
20260905224550 27 249 4.8 4.8 0.00 1.04 1.04 81 1011.6
20260905224049 27 279 0.0 4.8 0.00 1.04 1.04 81 1011.3
20260905223547 28 286 0.0 4.8 0.00 1.04 1.04 79 1011.4
20260905223042 28 286 3.2 4.8 0.00 1.04 1.04 79 1011.5
20260905222537 28 253 0.0 4.8 0.00 1.04 1.04 75 1011.5
20260905222032 28 270 3.2 4.8 0.00 1.04 1.04 75 1011.5
20260905221528 28 270 0.0 4.8 0.00 1.04 1.04 77 1011.7
20260905221024 28 281 3.2 6.4 0.00 1.04 1.04 78 1011.5
20260905220520 28 301 4.8 4.8 0.00 1.04 1.04 81 1011.6
20260905220015 28 270 0.0 4.8 0.00 1.04 1.04 80 1011.5
20260905215510 27 245 4.8 4.8 0.00 1.04 1.04 79 1011.4
20260905215006 28 247 3.2 4.8 0.00 1.04 1.04 80 1011.5
20260905214501 28 237 0.0 3.2 0.00 1.04 1.04 80 1011.5
20260905213956 28 279 1.6 4.8 0.00 1.04 1.04 78 1011.6
20260905213452 28 262 0.0 4.8 0.00 1.04 1.04 79 1011.5
20260905212947 28 346 0.0 3.2 0.00 1.04 1.04 76 1011.5
20260905212442 28 240 3.2 6.4 0.00 1.04 1.04 78 1011.2
20260905211941 28 251 3.2 9.7 0.00 1.04 1.04 77 1011.3
20260905211436 28 270 3.2 6.4 0.00 1.04 1.04 77 1011.3
20260905210926 28 252 4.8 4.8 0.00 1.04 1.04 77 1011.1
20260905210421 29 297 0.0 8.0 0.00 1.04 1.04 73 1011.1
20260905205920 30 26 0.0 4.8 0.00 1.04 1.04 73 1011.2
20260905205415 30 306 1.6 4.8 0.00 1.04 1.04 73 1011.2
20260905204914 29 29 1.6 6.4 0.00 1.04 1.04 74 1011.2
20260905204410 29 287 3.2 6.4 0.00 1.04 1.04 73 1011.3
20260905203909 30 339 4.8 4.8 0.00 1.04 1.04 71 1011.4
20260905203405 30 248 4.8 6.4 0.00 1.04 1.04 72 1011.2
20260905202900 30 203 0.0 4.8 0.00 1.04 1.04 72 1011.5
20260905202355 30 281 3.2 6.4 0.00 1.04 1.04 73 1011.3
20260905201850 30 214 0.0 4.8 0.00 1.04 1.04 72 1011.4
20260905201345 29 270 4.8 6.4 0.00 1.04 1.04 73 1011.5
20260905200839 29 256 4.8 4.8 0.00 1.04 1.04 73 1011.4
20260905200336 29 270 1.6 6.4 0.00 1.04 1.04 73 1011.6
20260905195833 29 328 0.0 4.8 0.00 1.04 1.04 71 1011.8
20260905195329 28 123 0.0 3.2 0.00 1.04 1.04 73 1011.9
20260905194825 28 294 0.0 4.8 0.00 1.04 1.04 76 1012.0
20260905194325 28 216 3.2 8.0 0.00 1.04 1.04 73 1011.9
20260905193824 28 286 0.0 4.8 0.00 1.04 1.04 77 1012.0
20260905193319 28 221 3.2 4.8 0.00 1.04 1.04 72 1012.3
20260905192815 28 297 0.0 6.4 0.00 1.04 1.04 71 1012.3
20260905192311 29 187 1.6 9.7 0.00 1.04 1.04 72 1012.2
20260905191810 29 331 0.0 6.4 0.00 1.04 1.04 74 1012.1
20260905191308 30 78 3.2 3.2 0.00 1.04 1.04 70 1012.4
20260905190807 30 285 0.0 4.8 0.00 1.04 1.04 71 1012.4
20260905190307 29 172 0.0 3.2 0.00 1.04 1.04 74 1012.5
20260905185805 28 48 3.2 8.0 0.00 1.04 1.04 74 1012.6
20260905185301 28 291 1.6 4.8 0.00 1.04 1.04 74 1012.7
20260905184754 28 2 6.4 6.4 0.00 1.04 1.04 73 1012.5
20260905184253 28 286 1.6 8.0 0.00 1.04 1.04 74 1012.6
20260905183747 28 110 6.4 9.7 0.00 1.04 1.04 74 1012.5
20260905183243 28 90 0.0 4.8 0.00 1.04 1.04 77 1012.7
20260905182742 28 5 6.4 6.4 0.00 1.04 1.04 72 1012.7
20260905182241 28 112 0.0 4.8 0.00 1.04 1.04 74 1012.8
20260905181737 28 78 4.8 6.4 0.00 1.04 1.04 77 1012.9
20260905181236 27 160 0.0 3.2 0.00 1.04 1.04 74 1012.9
20260905180731 28 110 4.8 4.8 0.00 1.04 1.04 76 1012.8
20260905180226 28 261 1.6 4.8 0.00 1.04 1.04 76 1012.9
20260905175721 27 297 0.0 4.8 0.00 1.04 1.04 78 1013.0
20260905175216 27 49 6.4 6.4 0.00 1.04 1.04 77 1013.2
20260905174710 27 0 3.2 4.8 0.00 1.04 1.04 77 1013.0
20260905174201 28 98 0.0 6.4 0.00 1.04 1.04 77 1013.1
20260905173656 27 78 3.2 4.8 0.00 1.04 1.04 77 1013.1
20260905173151 28 351 3.2 6.4 0.00 1.04 1.04 78 1013.2
20260905172651 28 253 0.0 4.8 0.00 1.04 1.04 78 1013.4
20260905172145 27 265 0.0 8.0 0.00 1.04 1.04 78 1013.5
20260905171641 28 355 3.2 4.8 0.00 1.04 1.04 80 1013.5
20260905171137 27 262 0.0 3.2 0.00 1.04 1.04 84 1013.4
20260905170633 27 243 3.2 6.4 0.00 1.04 1.04 83 1013.6
20260905170129 27 209 1.6 4.8 0.00 1.04 1.04 85 1013.7
20260905165623 27 248 3.2 6.4 0.00 1.04 1.04 84 1013.7
20260905165118 26 354 1.6 11.3 0.00 1.04 1.04 83 1013.6
20260905164613 26 220 3.2 6.4 0.00 1.04 1.04 86 1013.7
20260905164107 27 114 4.8 8.0 0.00 1.04 1.04 86 1013.4
20260905163604 26 123 4.8 9.7 0.00 1.04 1.04 84 1013.8
20260905163100 26 352 4.8 6.4 0.00 1.04 1.04 85 1013.8
20260905162556 26 7 1.6 6.4 0.00 1.04 1.04 86 1014.0
20260905162054 26 8 3.2 8.0 0.00 1.04 1.04 87 1013.9
20260905161549 25 112 11.3 11.3 0.00 1.04 1.04 89 1014.2
20260905161047 26 357 4.8 6.4 0.00 1.04 1.04 86 1014.1
20260905160546 26 139 0.0 4.8 0.00 1.04 1.04 87 1014.7
20260905160046 25 140 3.2 6.4 0.00 1.04 1.04 88 1014.4
20260905155545 25 0 0.0 4.8 0.00 1.04 1.04 88 1014.3
20260905155044 25 5 0.0 4.8 0.00 1.04 1.04 90 1014.3
20260905154539 25 358 0.0 6.4 0.00 1.04 1.04 92 1014.5
20260905154034 24 139 3.2 6.4 0.00 1.04 1.04 92 1014.3
20260905153530 25 253 0.0 3.2 0.00 1.04 1.04 96 1014.2
20260905153030 23 285 0.0 3.2 0.00 1.04 1.04 97 1014.2
20260905152525 22 243 0.0 3.2 0.00 1.04 1.04 96 1014.0
20260905152020 22 229 0.0 4.8 0.00 1.04 1.04 99 1014.0
20260905151515 22 184 0.0 4.8 0.00 1.04 1.04 99 1014.4
20260905151010 22 270 6.4 11.3 0.00 1.04 1.04 99 1014.1
20260905150505 22 337 0.0 4.8 0.00 1.04 1.04 99 1014.2
20260905150002 22 221 8.0 9.7 0.00 1.04 1.04 99 1013.9
20260905145457 22 259 4.8 12.9 0.00 1.04 1.04 99 1013.6
20260905144951 22 250 3.2 8.0 0.00 1.04 1.04 99 1012.8
20260905144446 22 285 0.0 4.8 0.00 1.04 1.04 99 1012.8
20260905143945 22 264 0.0 6.4 0.00 1.04 1.04 99 1012.7
20260905143444 22 253 4.8 6.4 0.00 1.04 1.04 99 1013.1
20260905142939 22 255 0.0 6.4 0.00 1.04 1.04 99 1013.2
20260905142437 21 264 1.6 4.8 0.00 1.04 1.04 99 1013.4
20260905141933 21 270 0.0 6.4 0.00 1.04 1.04 99 1012.2
20260905141427 21 328 3.2 8.0 0.00 1.04 1.04 99 1012.7
20260905140924 21 234 1.6 4.8 0.00 1.04 1.04 99 1012.8
20260905140419 21 0 0.0 4.8 0.00 1.04 1.04 99 1013.0
20260905135917 21 128 3.2 4.8 0.00 1.04 1.04 99 1013.4
20260905135413 21 270 0.0 4.8 0.00 1.04 1.04 99 1013.6
20260905134909 21 231 0.0 4.8 0.00 1.04 1.04 99 1014.0
20260905134408 21 246 3.2 6.4 0.00 1.04 1.04 99 1014.3
20260905133902 21 250 6.4 6.4 0.00 1.04 1.04 99 1014.2
20260905133357 21 127 4.8 4.8 0.00 1.04 1.04 99 1013.7
20260905132856 22 270 0.0 4.8 0.00 1.04 1.04 99 1013.9
20260905132352 22 185 1.6 4.8 0.00 1.04 1.04 99 1014.0
20260905131852 22 117 0.0 4.8 0.05 1.04 1.04 99 1014.0
20260905131348 21 131 3.2 3.2 0.05 1.04 1.04 99 1014.4
20260905130843 21 144 0.0 4.8 0.05 1.02 1.02 99 1014.5
20260905130341 21 195 1.6 3.2 0.05 1.02 1.02 99 1014.5
20260905125837 21 297 0.0 4.8 0.00 1.02 1.02 99 1014.5
20260905125332 21 252 3.2 4.8 0.00 1.02 1.02 99 1014.6
20260905124828 21 169 3.2 3.2 0.00 1.02 1.02 99 1014.4
20260905124324 21 270 1.6 4.8 0.00 1.02 1.02 99 1014.8